CW0237 Weather Reports


time (UTC)temp
C
wind
direction
speed
KPH
gust
KPH
rain 1hr
cm
rain 24hr
cm
rain mn
cm
humidity
%
barometer
mb
20260507030204 15 171 3.2 8.0 0.00 0.15 0.15 94 1005.1
20260507025704 15 171 4.8 11.3 0.00 0.15 0.15 94 1005.1
20260507025203 15 171 1.6 4.8 0.00 0.15 0.15 94 1005.1
20260507024704 15 171 3.2 9.7 0.00 0.15 0.15 94 1005.1
20260507024207 15 169 3.2 9.7 0.00 0.15 0.15 93 1004.9
20260507023703 15 171 3.2 9.7 0.00 0.15 0.15 93 1004.8
20260507023204 15 171 4.8 11.3 0.00 0.15 0.15 93 1004.9
20260507022705 15 171 3.2 8.0 0.00 0.15 0.15 93 1004.9
20260507021707 15 171 1.6 8.0 0.00 0.15 0.15 93 1005.0
20260507020204 15 171 4.8 8.0 0.00 0.15 0.15 93 1005.0
20260507015704 14 171 3.2 12.9 0.00 0.15 0.15 93 1004.9
20260507014205 14 171 4.8 11.3 0.00 0.15 0.15 93 1005.1
20260507012204 14 178 3.2 9.7 0.00 0.15 0.15 93 1005.2
20260507011704 14 178 3.2 14.5 0.00 0.15 0.15 93 1005.3
20260507010204 14 180 3.2 8.0 0.00 0.15 0.15 93 1005.4
20260507002703 14 190 4.8 11.3 0.03 0.15 0.15 92 1005.3
20260507001204 14 181 4.8 11.3 0.03 0.15 0.15 92 1005.1
20260507000208 14 184 3.2 11.3 0.03 0.15 0.15 92 1005.1
20260506234204 14 173 3.2 11.3 0.03 0.15 0.15 92 1005.0
20260506233703 14 173 1.6 4.8 0.03 0.15 0.15 92 1005.0
20260506233204 14 173 3.2 9.7 0.00 0.13 0.13 92 1005.0
20260506232204 15 196 3.2 11.3 0.00 0.13 0.13 92 1005.0
20260506231704 15 183 3.2 8.0 0.00 0.13 0.13 92 1005.0
20260506230204 15 185 3.2 11.3 0.00 0.13 0.13 92 1005.1
20260506225703 15 190 3.2 8.0 0.00 0.13 0.13 92 1005.1
20260506225203 15 191 3.2 12.9 0.03 0.13 0.13 92 1005.1
20260506224705 15 171 4.8 14.5 0.03 0.13 0.13 92 1005.1
20260506224204 15 179 3.2 8.0 0.03 0.13 0.13 92 1005.1
20260506223704 15 179 3.2 19.3 0.03 0.13 0.13 92 1005.0
20260506220704 15 183 8.0 16.1 0.03 0.13 0.13 91 1005.3
20260506212705 15 186 1.6 9.7 0.05 0.10 0.10 90 1005.7
20260506211703 15 178 3.2 11.3 0.05 0.10 0.10 90 1005.7
20260506211206 15 178 4.8 14.5 0.05 0.10 0.10 90 1005.8
20260506210704 15 183 4.8 14.5 0.05 0.10 0.10 90 1005.7
20260506210203 15 192 4.8 14.5 0.05 0.10 0.10 89 1005.7
20260506204704 16 189 4.8 14.5 0.05 0.08 0.08 89 1005.8
20260506204204 16 176 4.8 11.3 0.05 0.08 0.08 89 1005.9
20260506203704 16 183 4.8 11.3 0.03 0.05 0.05 89 1005.9
20260506203204 16 1 4.8 14.5 0.03 0.05 0.05 88 1005.9
20260506202706 16 180 6.4 16.1 0.03 0.05 0.05 88 1006.0
20260506200204 16 0 6.4 14.5 0.05 0.05 0.05 87 1006.1
20260506193705 17 355 6.4 14.5 0.03 0.03 0.03 84 1006.1
20260506191704 18 0 8.0 22.5 0.00 0.00 0.00 81 1006.2
20260506190704 18 0 6.4 14.5 0.00 0.00 0.00 78 1006.2
20260506190206 18 354 8.0 19.3 0.00 0.00 0.00 77 1006.3
20260506185203 19 165 9.7 20.9 0.00 0.00 0.00 74 1006.3
20260506184704 20 208 9.7 19.3 0.00 0.00 0.00 73 1006.3
20260506184203 20 202 3.2 12.9 0.00 0.00 0.00 73 1006.3
20260506182203 20 14 4.8 22.5 0.00 0.00 0.00 70 1006.5
20260506180204 21 180 8.0 19.3 0.00 0.00 0.00 68 1006.6
20260506175704 21 304 6.4 12.9 0.00 0.00 0.00 67 1006.6
20260506173704 21 0 9.7 29.0 0.00 0.00 0.00 66 1006.7
20260506173204 22 0 9.7 20.9 0.00 0.00 0.00 65 1006.8
20260506172705 22 0 8.0 20.9 0.00 0.00 0.00 65 1006.8
20260506171204 22 188 11.3 24.1 0.00 0.00 0.00 64 1006.8
20260506170703 22 193 9.7 38.6 0.00 0.00 0.00 64 1006.8
20260506165205 22 184 8.0 25.7 0.00 0.00 0.00 64 1006.8
20260506164203 22 0 11.3 35.4 0.00 0.00 0.00 65 1006.9
20260506163205 22 0 8.0 27.4 0.00 0.00 0.00 66 1007.1
20260506162703 22 0 8.0 19.3 0.00 0.00 0.00 65 1007.2
20260506162205 22 0 12.9 25.7 0.00 0.00 0.00 65 1007.2
20260506161208 22 243 8.0 32.2 0.00 0.00 0.00 64 1007.3
20260506160204 22 199 8.0 22.5 0.00 0.00 0.00 64 1007.6
20260506154205 22 182 8.0 19.3 0.00 0.00 0.00 66 1008.0
20260506153204 22 0 9.7 32.2 0.00 0.00 0.00 65 1008.0
20260506152706 22 335 8.0 16.1 0.00 0.00 0.00 66 1008.1
20260506152204 22 185 9.7 24.1 0.00 0.00 0.00 67 1008.1
20260506151704 21 0 4.8 25.7 0.00 0.00 0.00 68 1008.1
20260506151204 21 356 9.7 22.5 0.00 0.00 0.00 68 1008.2
20260506145204 21 352 3.2 19.3 0.00 0.00 0.00 69 1008.2
20260506144704 21 354 8.0 16.1 0.00 0.00 0.00 68 1008.3
20260506144205 21 353 9.7 19.3 0.00 0.00 0.00 69 1008.4
20260506143704 21 193 9.7 16.1 0.00 0.00 0.00 68 1008.3
20260506142703 21 138 8.0 14.5 0.00 0.00 0.00 68 1008.1
20260506142205 21 182 8.0 16.1 0.00 0.00 0.00 69 1008.1
20260506141705 21 330 8.0 20.9 0.00 0.00 0.00 69 1008.2
20260506141204 21 194 11.3 27.4 0.00 0.00 0.00 70 1008.2
20260506140204 21 215 4.8 25.7 0.00 0.00 0.00 71 1008.1
20260506135203 20 187 4.8 12.9 0.00 0.00 0.00 72 1008.1
20260506134704 20 1 3.2 25.7 0.00 0.00 0.00 72 1008.0
20260506133206 20 357 8.0 19.3 0.00 0.00 0.00 75 1008.5
20260506132705 19 198 4.8 11.3 0.00 0.00 0.00 76 1008.6
20260506132204 19 190 4.8 16.1 0.00 0.00 0.00 77 1008.7
20260506131705 19 179 4.8 11.3 0.00 0.00 0.00 77 1008.7
20260506131204 18 140 4.8 14.5 0.00 0.00 0.00 78 1008.8
20260506130705 18 174 4.8 12.9 0.00 0.00 0.00 78 1008.7
20260506125704 18 219 8.0 19.3 0.00 0.00 0.00 80 1008.8
20260506125204 17 186 3.2 8.0 0.00 0.00 0.00 81 1008.8
20260506124704 17 192 3.2 14.5 0.00 0.00 0.00 81 1008.8
20260506124203 17 166 9.7 25.7 0.00 0.00 0.00 82 1008.8
20260506122704 17 197 3.2 11.3 0.00 0.00 0.00 83 1008.9
20260506122204 16 192 4.8 14.5 0.00 0.00 0.00 84 1009.0
20260506121205 16 194 3.2 9.7 0.00 0.00 0.00 85 1008.8
20260506120704 16 189 3.2 9.7 0.00 0.00 0.00 85 1008.7
20260506115704 16 190 4.8 9.7 0.00 0.00 0.00 86 1009.2
20260506115204 16 190 4.8 9.7 0.00 0.00 0.00 86 1009.1
20260506112704 15 191 4.8 8.0 0.00 0.00 0.00 86 1009.3
20260506112205 15 191 3.2 9.7 0.00 0.00 0.00 86 1009.3
20260506111704 15 192 4.8 11.3 0.00 0.00 0.00 87 1009.2
20260506110204 15 196 3.2 14.5 0.00 0.00 0.00 87 1009.1
20260506105703 15 186 4.8 11.3 0.00 0.00 0.00 87 1009.2
20260506105204 15 195 4.8 12.9 0.00 0.00 0.00 87 1009.2
20260506104704 15 202 3.2 4.8 0.00 0.00 0.00 86 1009.2
20260506104204 15 202 4.8 19.3 0.00 0.00 0.00 86 1009.2
20260506103705 15 163 6.4 9.7 0.00 0.00 0.00 86 1009.2
20260506103205 15 168 4.8 12.9 0.00 0.00 0.00 86 1009.3
20260506102204 15 173 4.8 9.7 0.00 0.00 0.00 86 1009.2
20260506101707 15 173 4.8 12.9 0.00 0.00 0.00 86 1009.2
20260506095204 15 24 4.8 12.9 0.00 0.00 0.00 85 1009.0
20260506094205 15 171 3.2 8.0 0.00 0.00 0.00 85 1008.9
20260506093704 15 171 3.2 8.0 0.00 0.00 0.00 85 1008.9
20260506092703 15 182 4.8 11.3 0.00 0.00 0.00 85 1008.9
20260506092204 15 200 3.2 9.7 0.00 0.00 0.00 85 1009.0
20260506091204 15 176 4.8 11.3 0.00 0.00 0.00 84 1008.9
20260506083704 16 178 4.8 11.3 0.00 0.00 0.00 83 1009.2
20260506082705 16 195 3.2 9.7 0.00 0.00 0.00 83 1009.2
20260506082204 16 170 4.8 11.3 0.00 0.00 0.00 83 1009.2
20260506081704 16 192 8.0 20.9 0.00 0.00 0.00 83 1009.2
20260506081204 16 184 4.8 11.3 0.00 0.00 0.00 83 1009.2
20260506080203 16 170 4.8 14.5 0.00 0.00 0.00 83 1009.2
20260506073203 16 215 4.8 8.0 0.00 0.00 0.00 82 1009.3
20260506070704 16 207 8.0 19.3 0.00 0.00 0.00 81 1009.1
20260506070205 16 165 4.8 14.5 0.00 0.00 0.00 81 1009.0
20260506062204 16 184 4.8 12.9 0.00 0.00 0.00 79 1009.0
20260506060704 17 180 4.8 19.3 0.00 0.00 0.00 78 1009.1
20260506050704 17 187 4.8 19.3 0.00 0.00 0.00 75 1009.5
20260506044706 17 187 4.8 16.1 0.00 0.00 0.00 74 1009.6
20260506043204 17 174 4.8 19.3 0.00 0.00 0.00 74 1009.5
20260506041704 17 167 9.7 19.3 0.00 0.00 0.00 73 1009.5
20260506041203 17 215 4.8 11.3 0.00 0.00 0.00 73 1009.5
20260506040704 17 190 4.8 4.8 0.00 0.00 0.00 73 1009.5
20260506040204 17 191 6.4 19.3 0.00 0.00 0.00 72 1009.5
20260506033704 17 181 8.0 19.3 0.00 0.00 0.00 72 1009.3
20260506033204 17 181 4.8 16.1 0.00 0.00 0.00 72 1009.4